Preview of NWS' New Version of Forecast
This preview is not operational and should not be used for support decisions.
Latest weather observations around

Gadsden, Gadsden Municipal Airport (KGAD)

Using English Units (Switch to International System of Units)
Date/ Time (CDT) Wind (mph) Vis. (mi) Weather Sky Cond. Temp (°F) Rel. Humidity Wind Chill (°F) Heat Index (°F) Pressure Precip. (in)
Air Dwpt 6 hour Altimeter (inHg) Sea level (inHg) 1 hr 3 hr 6 hr
Max Min
Jun 19 15:56 WSW 9 10 Mostly Clear FEW041 88 74     63%   97 29.8 29.79      
Jun 19 14:56 SW 8 10 Partly Cloudy SCT041 SCT048 87 74     65%   95 29.81 29.81      
Jun 19 13:56 SW 7 10 Cloudy FEW029 BKN050 OVC080 86 76     72%   96 29.83 29.83      
Jun 19 12:56 SSE 5 10 Mostly Cloudy FEW031 SCT039 BKN050 82 77     85%   90 29.86 29.85     0
Jun 19 12:37 SSE 5 10 Mostly Cloudy FEW025 SCT031 BKN040 81 77     89%   87 29.87        
Jun 19 12:06 SSW 6 10 Mostly Cloudy FEW018 BKN024 BKN029 82 77     84%   91 29.88        
Jun 19 11:56 WSW 6 10 Partly Cloudy FEW018 SCT023 SCT028 83 78     85%   93 29.89 29.88 0    
Jun 19 11:04 WSW 7 10 Light Rain FEW013 BKN038 OVC060 79 77     94%   83 29.91   0    
Jun 19 10:56 Calm 10 Light Rain SCT015 BKN025 BKN034 79 78     97%   83 29.91 29.9 0    
Jun 19 10:25 7 10 Partly Cloudy FEW019 SCT040 79 75     89%   82 29.9        
Jun 19 09:56 SW 6 10 Cloudy BKN015 OVC040 78 76     93%   80 29.91 29.9      
Jun 19 09:43 WSW 8 10 Cloudy OVC015 79 75     89%   82 29.91        
Jun 19 09:30 SW 9 10 Cloudy OVC013 79 77     94%   83 29.91        
Jun 19 08:56 WSW 9 10 Cloudy OVC015 77 76     96%   79 29.91 29.9      
Jun 19 08:12 SW 7 10 Cloudy SCT008 BKN016 OVC022 75 75     100%   77 29.9        
Jun 19 07:56 SSW 7 10 Cloudy BKN008 OVC016 75 75     100%   77 29.9 29.89      
Jun 19 07:29 SW 8 10 Mostly Cloudy BKN006 73        %     29.89        
Jun 19 07:14 Calm 10 Mostly Cloudy SCT006 BKN100 73        %     29.89        
Jun 19 06:56 3 10 Mostly Cloudy BKN095 73        %     29.89 29.89     0
Jun 19 05:56 Calm 10 Mostly Cloudy SCT015 BKN039 BKN100 72        %     29.89 29.89      
Jun 19 05:30 SSW 5 10 Cloudy BKN015 OVC036 72        %     29.9        
Jun 19 04:56 Calm 10 Cloudy SCT013 BKN060 OVC110 72        %     29.89 29.89      
Jun 19 04:22 Calm 10 Mostly Cloudy BKN013 BKN110 72        %     29.89        
Jun 19 03:56 SSW 3 10 Partly Cloudy SCT013 SCT100 72        %     29.88 29.88   0  
Jun 19 02:56 Calm 10 Mostly Clear FEW110 72        %     29.89 29.88      
Jun 19 02:35 SW 6 10 Mostly Clear FEW008 73        %     29.89        
Jun 19 01:56 SW 7 10 Cloudy OVC008 73        %     29.89 29.88 0    
Jun 19 01:14 SW 5 10 Cloudy BKN006 OVC012 73        %     29.9   0    
Jun 19 00:56 SSW 5 10 Light Rain BKN010 OVC014 73        %     29.91 29.9 0   0
Jun 18 23:56 Calm 8 Light Rain OVC008 72        %     29.92 29.91 0    
Jun 18 23:46 3 9 Light Rain OVC008 72        %     29.92   0    
Jun 18 22:56 S 5 10 Light Rain OVC012 73        %     29.91 29.91 0    
Jun 18 21:56 S 5 10 Cloudy BKN012 OVC029 72        %     29.91 29.91   0  
Jun 18 20:56 S 3 10 Cloudy BKN010 OVC110 73        %     29.9 29.89 0    
Jun 18 20:28 Calm 10 Cloudy OVC008 73        %     29.9   0    
Jun 18 20:06 SE 5 10 Mostly Cloudy BKN010 73        %     29.9   0    
Jun 18 19:56 ESE 3 10 Light Rain SCT008 73        %     29.89 29.89 0    
Jun 18 19:52 SE 3 10 Light Rain SCT006 73        %     29.9   0    
Jun 18 19:20 Calm 10 Light Rain BKN006 BKN043 OVC120 73        %     29.91   0    
Jun 18 19:08 SSW 3 10 Cloudy FEW006 BKN044 OVC120 73        %     29.91        
Jun 18 18:56 3 10 Mostly Cloudy FEW041 BKN048 BKN060 73        %     29.91 29.91 0   1
Jun 18 18:38 E 5 9 Light Rain SCT017 BKN030 OVC055 73        %     29.91   0    
Jun 18 18:19 SE 5 7 Light Rain FEW011 BKN028 OVC039 72        %     29.92   0    
Jun 18 18:01 S 6 2.5 Heavy Rain FEW008 BKN021 OVC034 72        %     29.92   0    
Jun 18 17:56 S 5 4 Heavy Rain and Fog/Mist FEW008 BKN021 OVC034 72 72     100%   74 29.92 29.92 0    
Jun 18 17:45 SSE 10 1.75 Thunderstorms and Heavy Rain and Fog/Mist SCT008 BKN024 OVC045 72 72     100%   73 29.91   0    
Jun 18 17:39 S 11 5 Thunderstorms and Heavy Rain and Fog/Mist FEW010 BKN024 OVC070 75 75     100%   77 29.91   0    
Jun 18 17:26 SE 3 10 Thunderstorms and Rain FEW024 SCT044 BKN070 79 79     100%   83 29.91   0    
Jun 18 16:56 ESE 5 10 Light Rain FEW032 SCT043 SCT050 78 78     100%   81 29.91 29.9 0    
Jun 18 15:56 SE 6 10 Mostly Clear FEW015 80 75     85%   85 29.92 29.91   0  
Jun 18 15:40 SE 3 10 Mostly Clear FEW011 81 75     84%   86 29.93        
Jun 18 15:21 6 10 Mostly Cloudy BKN011 81 79     94%   88 29.93        
Jun 18 15:01 ESE 6 10 Mostly Cloudy BKN009 BKN013 81 79     94%   88 29.94        
Jun 18 14:56 E 6 10 Partly Cloudy SCT009 80 79     97%   87 29.95 29.94 0    
Jun 18 14:54 ESE 5 10 Partly Cloudy SCT009 SCT013 79 79     100%   83 29.95   0    
Jun 18 14:42 ESE 5 10 Light Rain BKN011 BKN036 79 79     100%   83 29.95   0    
Jun 18 14:30 Calm 9 Light Rain SCT011 BKN025 BKN036 77 77     100%   79 29.95   0    
Jun 18 14:19 S 3 10 Light Rain BKN009 79 77     94%   83 29.95   0    
Jun 18 13:56 Calm 10 Mostly Clear FEW009 77 77     100%   79 29.95 29.95 0    
Jun 18 13:48 S 5 10 Partly Cloudy SCT009 75 75     100%   77 29.96   0    
Jun 18 13:36 3 10 Mostly Cloudy BKN009 BKN018 75 75     100%   77 29.96   0    
Jun 18 13:22 SE 5 10 Light Rain FEW004 BKN009 BKN020 73        %     29.97   0    
Jun 18 12:56 SSE 6 4 Thunderstorms and Rain SCT007 BKN013 OVC046 75        %     29.99 29.98 0   0
Jun 18 12:52 SSW 3 6 Thunderstorms and Rain BKN013 BKN019 OVC044 75        %     29.99   0    
Jun 18 12:32 W 6 4 Heavy Rain and Fog/Mist BKN016 BKN021 OVC036 75 75     100%   77 29.99   0    
Jun 18 12:08 Calm 10 Light Rain BKN016 OVC020 79 77     94%   83 29.98   0    
Jun 18 11:56 Calm 10 Cloudy BKN014 OVC021 81 78     91%   89 29.98 29.97 0    
Jun 18 11:30 Calm 10 Mostly Cloudy BKN010 BKN043 79 77     94%   83 29.99   0    
Jun 18 10:56 Calm 10 Light Rain OVC008 76 76     100%   78 30 30 0    
Jun 18 09:56 Calm 10 Cloudy OVC008 76 76     100%   78 30.01 30.01      
Jun 18 08:56 Calm 10 Cloudy OVC008 73        %     30.01 30.01      
Jun 18 08:21 Calm 10 Cloudy BKN006 OVC013 73        %     30.01        
Jun 18 08:08 Calm 10 Cloudy FEW006 OVC013 73        %     30.02        
Jun 18 07:56 Calm 10 Cloudy OVC015 73        %     30.01 30.01      
Jun 18 07:03 Calm 10 Mostly Cloudy BKN019 72        %     30        
Jun 18 06:54 Calm 10 Mostly Cloudy BKN019 72        %     30.01        
Jun 18 06:34 Calm 10 Mostly Cloudy BKN019 BKN060 72        %     30.01        
Jun 18 06:03 Calm 10 Cloudy SCT022 SCT035 OVC050 70        %     30.01        
Jun 18 05:56 Calm 10 Mostly Cloudy BKN022 BKN029 BKN055 70        %     30.01 30      
Jun 18 05:12 Calm 10 Mostly Cloudy BKN022 70        %     30        
Jun 18 04:56 Calm 10 Clear CLR 70        %     29.99 29.98      
Jun 18 03:56 Calm 10 Mostly Cloudy BKN030 BKN036 70        %     29.99 29.98   0  
Jun 18 02:56 Calm 10 Clear CLR 70        %     29.98 29.97      
Jun 18 01:56 Calm 10 Clear CLR 70        %     30 29.98 0    
Jun 18 00:56 NNE 7 10 Light Rain FEW060 71 71     100%   73 30.02 30.01 0   0
Jun 18 00:49 ENE 7 10 Light Rain FEW009 SCT080 SCT100 72        %     30.03   0    
Jun 17 23:56 Calm 10 Light Rain FEW120 72 72     100%   74 30.03 30.01 0    
Jun 17 22:56 S 9 10 Rain FEW041 BKN050 BKN065 75 75     100%   77 30.02 30.02 0    
Jun 17 21:56 Calm 10 Clear CLR 75 75     100%   77 30 29.99      
Jun 17 20:56 Calm 10 Clear CLR 77 76     96%   79 29.99 29.98      
Jun 17 19:56 Calm 10 Clear CLR 80 75     85%   85 29.98 29.97      
Jun 17 18:56 S 3 10 Clear CLR 85 73     68%   92 29.96 29.96      
Jun 17 17:56 SSW 3 10 Clear CLR 88 71     57%   94 29.96 29.95      
Jun 17 16:56 SSW 8 10 Clear CLR 90 69     50%   95 29.97 29.96      
Jun 17 15:56 SSW 8 10 Clear CLR 90 70     52%   95 29.98 29.96      
Jun 17 14:56 S 6 10 Mostly Clear FEW045 89 71     55%   95 30 29.99      
Jun 17 13:56 SW 7 10 Clear CLR 88 71     57%   94 30.02 30.01      
Jun 17 11:56 SSW 7 10 Clear CLR 86 72     63%   92 30.05 30.03      
Jun 17 10:56 SSW 7 10 Mostly Clear FEW029 84 74     72%   91 30.05 30.05      
Jun 17 08:56 3 10 Clear CLR 79 75     88%   83 30.05 30.04      
Jun 17 08:20 3 10 Mostly Clear FEW009 77 75     94%   79 30.05        
Jun 17 07:56 3 10 Clear CLR 75        %     30.04 30.03      
Jun 17 06:56 Calm 9 Clear CLR 70        %     30.03 30.02      
Jun 17 05:56 Calm 10 Partly Cloudy SCT002 66        %     30.02 30.01      
Jun 17 05:27 Calm 10 Partly Cloudy SCT002 66        %     30.01        
Jun 17 04:56 Calm 10 Clear CLR 66        %     30 30      
Jun 17 03:56 Calm 10 Clear CLR 68        %     29.98 29.98      
Jun 17 03:23 Calm 7 Clear CLR 68        %     29.97        
Jun 17 03:16 Calm 2.5 Fog/Mist CLR 68        %     29.97        
Jun 17 02:56 Calm 10 Clear CLR 68        %     29.98 29.98      
Jun 17 01:56 Calm 10 Clear CLR 70        %     30 29.99      
Jun 17 00:56 Calm 10 Clear   70        %     30.02 30.01      
Jun 16 23:56 ESE 3 10 Clear CLR 72        %     30.03 30.02      
Jun 16 22:56 SW 5 10 Mostly Clear FEW085 72        %     30.03 30.02      
Jun 16 21:56 NNW 3 10 Partly Cloudy SCT100 72 72     100%   74 30.02 30.02      
Jun 16 20:56 SSW 3 10 Clear CLR 74 74     100%   76 29.99 29.99      
Jun 16 19:56 WSW 3 10 Clear CLR 76 75     97%   78 29.98 29.97      
Jun 16 18:56 SSE 3 10 Clear CLR 80 75     85%   85 29.96 29.96     0
Jun 16 17:56 Calm 10 Clear CLR 79 74     85%   83 29.97 29.97      
Jun 16 16:56 SSW 6 10 Clear CLR 78 73     85%   80 29.98 29.98      
Jun 16 15:56 Calm 10 Clear CLR 74 72     94%   75 30 29.99 0 0  
Jun 16 15:32 WNW 6 10 Mostly Clear FEW120 73 72     94%   75 30   0    
Notice The following observation data may not be complete
Jun 16 14:56 S 9 10 Thunderstorms and Rain FEW021 SCT043 BKN060   70      %     30.02   0    
May 15 08:56 SE 6 10 Mostly Clear FEW060 77 68     74%   78 30.02 30.01      
May 15 05:56 NNW 6 4 Fog/Mist CLR 65 65     100%     30.01 30      
May 15 03:56 Calm 8 Mostly Clear FEW070 67 67     100%     29.99 29.98      
May 14 13:56 N 5 10 Clear CLR 91 65     42%   93 30.02 30.01      
May 14 11:56 NNE 9 10 Mostly Clear FEW060 87 65     48%   89 30.05 30.04      
May 13 18:56 Calm 10 Clear CLR 85 67     55%   88 30.03 30.03      
May 13 17:56 WNW 6 10 Clear CLR 88 64     45%   89 30.03 30.03      
May 13 03:56 Calm 2 Fog/Mist CLR 58 58     100%     30.09 30.09      
May 13 00:56 Calm 5 Fog/Mist CLR 61 61     100%     30.09 30.09      
May 12 04:56 Calm 8 Clear CLR 59 59     100%     30.14 30.14      
May 12 03:56 W 3 8 Clear CLR 59 59     100%     30.12 30.11      
May 11 20:56 WSW 3 10 Clear CLR 70 66     87%     30.09 30.09      
Jun 12 04:56 Calm 10 Mostly Cloudy FEW028 BKN034 70 69     97%     30.15 30.18      
Jun 11 10:20 Calm 10 Mostly Cloudy BKN021 81 72     74%   85 30.18        
Jun 10 21:56 Calm 10 Clear   70 64     81%     30.11 30.14      
Jun 10 20:56 Calm 10 Clear CLR 74 64     71%   74 30.08 30.11      
Jun 10 03:56 Calm 10 Mostly Clear FEW070 60 60     100%     30.02 30.05      
Jun 08 22:56 Calm 10 Mostly Clear FEW060 62 60     93%     29.93 29.97      
Jun 07 18:56 N 9 10 Clear CLR 77 55     47%   77 29.85 29.89      
Jun 07 15:56 NNE 14 10 Clear CLR 82 54     38%   81 29.83 29.86      
Jun 07 13:56 N 10 10 Clear CLR 81 60     49%   82 29.83 29.87      
Jun 07 11:56 NE 10 10 Clear CLR 78 62     58%   78 29.85        
Jun 06 04:23 Calm 7 Partly Cloudy SCT003 70 70     100%     29.8        
Jun 05 23:56 Calm 10 Light Rain CLR 71 70     96%   72 29.84 29.86 0